Temperature
2 3 3 2 2 2 2 2 2 3 3 4 3 2 2 1 1 -0 -1 -1 -1 -2 -2 -1 -1 -1 -1 -1 -1 -1 -0 -0 -0 -0 -0 -0 -0 -0 -0 -0 -0 -0 -0 -0
1 2 2 1 2 2 2 2 2 2 2 2 2 2 1 0 -0 -1 -2 -2 -2 -2 -2 -2 -2 -2 -2 -2 -1 -1 -1 -1 -1 -1 -1 -1 -1 -1 -1 -1 -1 -1 -1 -1
1 2 1 0 1 1 1 1 1 1 1 1 0 -0 -1 -1 -1 -2 -2 -3 -3 -3 -3 -3 -3 -3 -3 -3 -2 -2 -2 -2 -2 -2 -2 -2 -2 -2 -2 -2 -2 -2 -2 -2
0 0 0 2 1 1 1 1 0 0 0 -0 -0 -1 -1 -1 -2 -2 -3 -3 -3 -4 -4 -4 -4 -4 -4 -3 -3 -3 -3 -3 -3 -3 -3 -2 -2 -2 -2 -2 -2 -2 -2 -2
-0 -0 0 2 0 -0 -0 -0 -0 -0 -1 -1 -1 -1 -2 -2 -2 -3 -3 -3 -4 -4 -4 -4 -4 -4 -4 -4 -4 -4 -4 -3 -3 -3 -3 -3 -3 -3 -3 -3 -3 -3 -3 -3
-0 -0 0 1 -1 -1 -0 -1 -1 -1 -2 -2 -2 -3 -3 -3 -3 -3 -4 -4 -4 -5 -5 -5 -5 -5 -5 -5 -4 -4 -4 -4 -4 -4 -4 -4 -4 -4 -4 -4 -4 -4 -4 -4
-1 -1 -1 -1 -2 -1 -1 -1 -2 -2 -2 -3 -4 -3 -4 -4 -4 -4 -5 -5 -5 -5 -6 -6 -6 -6 -6 -5 -5 -5 -5 -5 -5 -5 -5 -5 -5 -5 -5 -5 -5 -5 -5 -5
-2 -1 -1 -3 -3 -2 -2 -2 -3 -3 -3 -3 -4 -4 -4 -5 -5 -5 -5 -6 -6 -6 -6 -6 -6 -7 -7 -7 -7 -6 -6 -6 -6 -6 -6 -6 -6 -6 -6 -6 -6 -6 -6 -6
-2 -1 -2 -3 -3 -3 -3 -3 -4 -4 -4 -4 -5 -5 -5 -6 -6 -6 -6 -7 -7 -7 -7 -7 -7 -7 -7 -7 -7 -7 -7 -7 -7 -7 -6 -6 -6 -6 -7 -7 -7 -7 -7 -7
-3 -3 -3 -3 -3 -3 -3 -4 -4 -4 -4 -5 -5 -6 -6 -7 -7 -7 -7 -7 -7 -8 -8 -8 -8 -8 -8 -8 -8 -8 -8 -8 -8 -7 -7 -7 -7 -7 -7 -8 -8 -8 -8 -8
-4 -4 -4 -4 -4 -4 -4 -5 -5 -5 -5 -6 -6 -7 -7 -8 -8 -8 -8 -8 -8 -8 -9 -9 -9 -9 -9 -9 -9 -9 -9 -9 -9 -9 -9 -8 -8 -8 -8 -9 -9 -9 -9 -9
-4 -5 -5 -5 -4 -5 -5 -5 -6 -6 -6 -7 -7 -7 -8 -8 -8 -9 -9 -9 -9 -9 -9 -9 -9 -9 -10 -10 -10 -10 -10 -10 -10 -10 -10 -9 -9 -9 -9 -9 -9 -10 -9 -9
-5 -5 -5 -5 -5 -6 -6 -6 -7 -7 -7 -7 -8 -8 -8 -9 -9 -9 -9 -10 -10 -10 -10 -10 -10 -10 -10 -10 -10 -11 -11 -11 -11 -11 -10 -10 -10 -10 -10 -10 -10 -10 -10 -10
-6 -6 -6 -6 -7 -7 -7 -7 -7 -8 -8 -8 -9 -9 -9 -9 -10 -10 -10 -10 -10 -11 -11 -11 -11 -11 -11 -11 -11 -11 -11 -11 -11 -11 -11 -11 -11 -11 -11 -11 -11 -11 -11 -11
-6 -7 -7 -7 -7 -8 -8 -8 -8 -8 -9 -9 -9 -10 -10 -10 -10 -11 -11 -11 -11 -11 -11 -11 -12 -12 -12 -12 -12 -12 -12 -12 -12 -12 -12 -12 -12 -12 -12 -12 -12 -12 -11 -11
-8 -8 -8 -8 -8 -8 -9 -9 -9 -9 -10 -10 -10 -10 -10 -11 -11 -11 -11 -11 -12 -12 -12 -12 -12 -12 -12 -12 -12 -12 -12 -12 -12 -12 -12 -12 -13 -13 -13 -12 -12 -12 -12 -12
-9 -9 -9 -9 -9 -9 -9 -9 -10 -10 -10 -10 -11 -11 -11 -11 -11 -12 -12 -12 -12 -12 -13 -13 -13 -13 -13 -13 -13 -13 -13 -13 -13 -13 -13 -13 -13 -13 -13 -13 -13 -13 -13 -13
-9 -9 -9 -10 -10 -10 -10 -10 -10 -11 -11 -11 -11 -11 -11 -12 -12 -12 -12 -13 -13 -13 -13 -13 -13 -13 -13 -13 -13 -13 -13 -13 -13 -13 -14 -14 -14 -14 -14 -14 -13 -13 -13 -13
-10 -10 -10 -10 -11 -11 -11 -11 -11 -11 -11 -11 -11 -12 -12 -12 -12 -12 -13 -13 -13 -13 -13 -13 -14 -14 -13 -13 -14 -14 -14 -14 -14 -14 -14 -14 -14 -14 -14 -14 -14 -14 -14 -14
-10 -11 -11 -11 -11 -11 -11 -11 -11 -12 -12 -12 -12 -12 -12 -12 -13 -13 -13 -13 -13 -14 -14 -14 -14 -14 -14 -14 -14 -14 -14 -14 -14 -14 -14 -14 -14 -14 -14 -14 -14 -14 -14 -14
-11 -11 -11 -11 -11 -12 -12 -12 -12 -12 -12 -12 -12 -12 -13 -13 -13 -13 -14 -14 -14 -14 -14 -14 -14 -14 -14 -14 -14 -15 -15 -15 -15 -15 -15 -15 -15 -15 -15 -15 -15 -15 -15 -15
-12 -12 -12 -12 -12 -12 -12 -12 -12 -12 -12 -13 -13 -13 -13 -13 -14 -14 -14 -14 -14 -14 -14 -14 -14 -14 -14 -15 -15 -15 -15 -15 -15 -15 -15 -15 -15 -15 -15 -15 -15 -15 -15 -15
-12 -12 -12 -12 -12 -12 -13 -13 -13 -13 -13 -13 -13 -13 -14 -14 -14 -14 -14 -14 -14 -14 -15 -15 -15 -15 -15 -15 -15 -15 -15 -15 -15 -15 -15 -15 -15 -15 -16 -15 -15 -15 -15 -15
-12 -13 -13 -13 -13 -13 -13 -13 -13 -13 -13 -13 -14 -14 -14 -14 -14 -14 -15 -15 -15 -15 -15 -15 -15 -15 -15 -15 -15 -15 -15 -15 -15 -15 -15 -16 -16 -16 -16 -16 -16 -16 -16 -15
-13 -13 -13 -13 -13 -13 -13 -13 -14 -14 -14 -14 -14 -14 -15 -15 -15 -15 -15 -15 -15 -15 -15 -15 -15 -16 -16 -16 -16 -16 -16 -16 -16 -16 -16 -16 -16 -16 -16 -16 -16 -16 -16 -16
-13 -13 -13 -13 -14 -14 -14 -14 -14 -14 -14 -15 -15 -15 -15 -15 -15 -15 -15 -15 -15 -15 -15 -15 -16 -16 -16 -16 -16 -16 -16 -16 -16 -16 -16 -16 -16 -16 -16 -16 -16 -16 -16 -16
-14 -14 -14 -14 -14 -14 -14 -15 -15 -15 -15 -15 -15 -15 -15 -15 -16 -16 -16 -16 -16 -16 -16 -16 -16 -16 -16 -16 -16 -16 -16 -16 -16 -16 -16 -16 -16 -16 -16 -16 -16 -16 -16 -16
Wind_Speed
8 8 6 8 9 10 12 11 9 9 10 9 5 3 1 0 1 1 2 2 3 3 3 3 3 3 3 4 3 3 3 3 3 3 3 2 3 3 3 3 4 4 5 5
6 8 7 10 11 11 13 12 13 12 13 8 4 1 1 0 0 1 2 3 3 3 3 3 4 4 4 4 4 3 3 3 3 2 2 2 3 2 3 3 3 4 4 5
5 2 4 9 10 11 9 8 9 13 11 4 3 2 2 1 1 2 3 3 3 3 3 3 3 4 4 5 4 3 4 4 3 3 2 3 3 3 3 3 3 4 4 5
3 2 9 8 3 6 8 9 9 7 6 3 3 2 1 0 1 2 3 3 3 3 3 3 3 3 4 4 4 3 4 4 3 3 3 3 3 4 4 3 3 4 4 5
3 5 9 6 2 4 6 7 7 8 7 4 2 1 1 1 0 1 2 2 2 2 3 3 3 4 3 4 3 3 4 4 4 3 3 3 3 3 3 3 3 3 3 4
5 5 7 4 1 1 2 5 2 4 5 2 1 2 3 2 2 2 2 1 2 2 2 3 4 3 3 3 3 4 4 4 3 3 3 3 3 3 2 2 3 3 3 3
8 7 8 3 2 3 4 5 1 0 1 1 2 3 1 2 3 2 2 2 2 2 3 3 4 3 3 4 5 5 5 4 3 3 3 3 3 3 2 2 2 2 3 3
6 7 8 2 4 5 4 1 1 1 1 1 0 1 2 2 2 2 2 2 3 2 3 3 4 3 4 5 5 5 5 4 4 3 3 2 2 2 2 2 2 2 2 3
7 7 2 4 3 1 1 0 0 0 1 1 1 0 1 1 2 2 2 2 2 2 3 4 4 4 4 5 5 5 4 4 4 4 3 3 2 2 2 2 2 2 2 2
5 6 3 3 1 1 1 0 1 0 1 1 1 1 0 0 1 1 2 2 2 2 3 4 4 4 4 5 5 5 4 4 4 3 3 3 3 2 2 2 2 2 2 2
6 5 3 2 3 2 1 0 0 1 1 1 1 1 0 0 0 1 1 2 2 2 2 3 4 4 5 5 5 4 4 4 4 4 3 3 3 3 3 2 3 3 2 3
6 3 3 3 1 1 2 2 1 1 0 1 1 1 0 0 0 0 1 1 1 2 2 3 4 4 5 5 4 4 4 4 4 3 3 3 3 3 5 4 5 6 5 5
4 2 1 1 1 1 1 1 1 1 1 1 1 1 1 0 0 1 1 1 1 2 2 3 3 4 5 5 4 4 3 4 3 3 3 3 3 3 3 5 6 6 6 6
1 1 2 1 1 0 1 2 2 2 2 2 1 1 1 1 0 1 1 1 1 2 2 2 3 4 5 5 4 4 3 4 4 3 3 3 3 3 3 3 4 4 6 7
1 1 2 1 1 1 2 2 2 1 1 1 1 1 1 0 0 1 1 1 2 2 2 3 3 4 5 4 4 4 3 3 3 3 3 3 3 3 3 3 3 3 4 5
0 1 1 1 1 1 1 1 1 1 0 0 0 0 0 0 0 1 1 1 1 2 3 3 4 4 4 4 4 3 3 5 4 3 3 3 3 3 3 3 3 3 3 4
2 2 2 2 2 2 1 2 2 2 1 1 1 0 1 1 1 1 2 2 1 2 3 3 4 4 4 4 3 3 2 3 5 4 3 3 3 3 3 3 3 3 3 4
2 1 1 2 2 2 1 1 1 1 1 1 1 1 1 1 1 2 2 2 2 3 3 3 4 3 3 4 3 3 2 2 2 3 3 3 3 2 2 3 3 3 4 4
1 1 1 0 1 1 1 1 1 0 0 1 1 1 2 2 2 2 2 2 2 3 4 4 5 4 3 4 4 2 2 2 3 3 3 4 4 3 3 3 3 3 3 3
1 1 1 1 1 1 1 1 0 0 1 1 2 1 2 2 2 2 2 3 3 3 4 4 4 3 3 4 4 2 2 2 2 3 3 2 3 3 3 3 3 3 3 3
0 0 0 0 0 0 1 1 1 1 1 2 2 3 3 3 2 2 2 3 3 3 3 5 3 3 3 3 4 2 2 2 2 3 3 3 3 3 3 4 4 4 3 3
0 0 0 0 0 1 1 1 1 2 2 2 3 3 2 3 3 3 4 4 4 5 3 3 3 4 5 4 2 2 2 2 2 3 3 3 3 4 4 4 4 4 4 4
1 1 1 1 1 1 2 1 2 2 3 3 3 3 3 3 3 3 4 3 3 5 3 3 5 7 7 3 1 2 2 2 3 3 3 3 4 4 4 4 4 4 4 4
1 0 1 1 1 1 2 2 2 2 3 3 4 4 3 3 3 3 3 5 6 6 3 5 8 8 7 2 2 2 2 3 3 3 3 4 4 3 4 4 4 4 4 5
1 1 1 1 1 1 2 2 1 1 2 2 3 3 3 3 3 3 2 3 6 6 3 6 8 7 4 2 2 3 3 3 4 4 3 4 4 4 4 4 4 5 5 5
1 1 1 2 2 2 1 1 1 2 2 2 3 2 2 2 3 3 2 3 4 6 4 3 4 5 3 3 3 3 3 4 5 4 4 4 4 4 4 5 5 5 5 6
1 1 1 1 1 2 1 2 2 2 2 3 3 2 2 2 2 2 3 3 3 3 3 3 3 3 3 3 3 4 4 4 4 4 4 4 4 5 5 6 5 5 6 6
Wind_Direction
260 271 259 249 240 224 221 226 233 251 259 266 274 277 290 355 29 30 353 349 352 345 338 341 344 340 327 317 317 311 301 280 272 269 259 234 233 229 216 216 222 218 217 222
267 253 253 263 251 231 231 235 241 260 269 269 282 322 313 259 328 283 301 311 323 331 335 334 330 325 325 321 314 312 303 293 289 282 278 257 241 234 229 227 227 223 223 225
259 260 298 263 237 220 220 219 220 240 252 287 311 298 260 274 262 256 283 301 309 313 315 318 322 325 319 313 316 311 302 302 299 293 281 273 262 244 236 235 230 229 231 230
261 269 245 246 181 192 218 232 224 237 256 261 256 254 205 149 218 280 300 299 296 302 312 321 328 329 320 316 314 308 301 302 304 296 286 277 260 245 241 241 238 236 237 236
227 246 265 259 209 178 206 251 230 236 253 266 284 311 244 100 107 280 292 301 304 319 321 328 330 329 325 317 314 311 306 304 306 303 291 281 272 257 247 244 249 255 252 242
225 238 246 248 163 127 134 268 257 222 241 252 102 263 265 0 13 6 11 18 6 356 352 345 338 341 336 326 323 316 309 304 306 301 289 283 277 273 270 253 255 263 275 268
230 241 258 252 180 131 183 251 327 173 219 176 202 233 267 22 16 18 23 32 31 16 2 348 347 351 343 333 323 317 314 310 311 309 297 285 283 285 280 263 255 257 268 277
210 227 246 169 143 182 221 38 43 26 51 123 138 47 42 29 22 22 20 22 27 17 359 354 358 358 344 330 325 326 320 319 317 318 314 310 296 292 284 260 249 254 260 274
208 223 232 159 176 179 76 162 14 50 28 110 106 74 25 13 17 13 10 8 16 21 6 2 360 359 342 330 333 335 334 328 325 329 325 317 297 289 288 273 257 265 268 278
254 256 240 212 191 138 115 229 319 113 128 130 165 180 359 356 13 3 6 9 18 21 8 354 353 356 346 335 339 342 340 335 334 338 336 331 322 311 298 287 272 273 276 281
250 265 292 252 224 227 198 115 86 58 77 129 155 186 184 150 335 346 349 3 10 10 352 343 349 350 347 344 347 349 343 343 344 343 337 339 343 339 323 304 288 288 273 270
242 233 223 250 232 198 182 202 189 141 51 50 107 155 123 166 111 14 343 352 2 358 349 343 345 343 341 341 345 347 344 345 342 337 338 339 342 347 348 336 334 328 319 306
236 267 238 253 8 67 172 188 125 124 132 87 71 104 114 105 62 27 344 344 345 337 335 334 337 338 336 336 340 342 338 338 337 338 340 338 337 335 339 346 349 348 344 334
251 215 246 250 260 45 91 94 93 84 81 98 108 98 100 91 44 355 326 325 340 344 335 335 339 333 332 336 341 341 337 335 337 334 335 335 337 335 334 334 336 341 344 345
307 197 201 110 83 74 79 90 92 96 92 74 91 109 124 149 291 319 335 350 357 349 338 338 335 327 332 335 337 336 336 334 333 333 335 338 338 335 333 330 328 329 338 342
281 97 112 142 184 184 115 135 162 196 161 105 93 65 59 96 345 327 332 342 336 322 319 322 319 320 326 331 332 331 330 332 338 339 340 338 336 332 330 329 329 330 328 330
181 219 223 233 229 233 233 220 209 210 200 207 227 188 81 69 6 330 327 326 316 302 302 301 305 314 323 327 325 322 325 328 333 335 335 332 330 325 325 328 323 319 316 316
192 200 199 207 202 213 245 242 207 202 215 217 162 126 151 210 250 279 300 316 321 319 313 307 305 314 319 321 322 321 325 325 328 325 326 326 324 326 326 318 315 315 316 318
110 134 129 112 160 180 206 229 246 233 209 160 164 200 229 241 247 264 280 293 296 298 301 300 314 329 320 314 323 320 319 319 321 323 324 321 328 327 319 315 311 310 311 317
71 84 93 67 69 139 211 224 176 239 222 181 181 209 245 257 254 259 269 270 264 265 276 292 304 304 303 301 315 313 309 308 312 318 321 319 314 314 315 311 307 306 306 306
90 66 83 86 13 327 241 210 195 223 236 202 203 225 242 258 254 247 257 279 287 277 278 297 307 298 293 298 306 305 300 301 303 305 307 307 307 307 307 307 305 303 300 299
181 177 210 217 248 304 295 243 215 223 234 234 234 235 242 259 264 262 254 256 273 293 303 289 290 291 302 306 299 297 296 298 300 303 303 302 301 302 303 304 302 299 296 293
210 214 224 232 242 276 297 273 243 233 237 238 237 238 243 252 254 260 279 275 267 289 304 287 294 302 312 324 316 303 300 297 293 291 291 290 289 290 292 295 295 295 293 291
202 219 242 238 220 264 288 285 258 248 243 246 239 233 234 253 265 255 258 280 294 300 300 297 305 310 317 331 313 299 290 285 281 278 278 280 281 283 285 288 290 291 290 288
218 225 217 216 248 264 268 276 273 262 260 259 255 240 230 230 245 265 269 272 288 301 303 300 305 311 322 315 300 288 283 279 277 279 277 280 281 282 283 282 282 284 286 284
234 247 247 241 241 254 266 267 272 271 268 275 276 259 245 239 238 246 258 264 270 292 301 297 299 301 302 296 291 286 282 287 294 293 285 283 282 282 281 279 279 278 278 278
244 250 255 271 265 249 245 246 253 260 256 256 272 268 257 253 253 256 263 271 278 284 287 287 289 290 287 287 286 283 280 277 277 278 278 277 275 274 276 277 278 279 278 277
Height
1476 1472 1473 1473 1474 1474 1476 1474 1474 1464 1461 1458 1458 1460 1460 1460 1460 1461 1461 1460 1460 1459 1458 1457 1456 1456 1455 1455 1454 1454 1454 1454 1454 1454 1455 1456 1457 1458 1458 1459 1460 1461 1462 1463
1476 1471 1470 1470 1467 1468 1469 1468 1466 1463 1460 1455 1456 1458 1458 1459 1459 1459 1458 1458 1457 1457 1456 1455 1453 1452 1452 1451 1450 1450 1450 1449 1450 1450 1450 1451 1452 1453 1453 1454 1455 1456 1457 1457
1474 1469 1470 1469 1461 1461 1462 1460 1460 1460 1456 1453 1455 1456 1456 1456 1456 1456 1456 1455 1454 1454 1453 1452 1450 1449 1448 1447 1447 1446 1446 1445 1445 1446 1446 1446 1447 1448 1449 1449 1450 1450 1451 1452
1475 1475 1474 1455 1450 1451 1453 1453 1454 1453 1451 1452 1453 1453 1454 1454 1454 1453 1453 1452 1452 1451 1450 1449 1447 1446 1445 1444 1443 1442 1442 1441 1441 1441 1442 1442 1442 1443 1444 1444 1445 1445 1446 1446
1473 1472 1461 1450 1450 1450 1452 1451 1449 1449 1449 1450 1450 1451 1451 1452 1451 1451 1451 1450 1449 1448 1447 1445 1444 1443 1441 1440 1439 1438 1438 1437 1437 1438 1438 1438 1438 1438 1439 1439 1439 1440 1440 1441
1470 1469 1461 1447 1449 1447 1450 1452 1446 1446 1446 1448 1449 1451 1450 1449 1448 1448 1448 1447 1446 1445 1444 1443 1441 1440 1438 1437 1436 1435 1434 1434 1434 1434 1434 1434 1434 1434 1434 1434 1434 1435 1435 1436
1467 1465 1455 1448 1447 1448 1454 1449 1446 1444 1445 1446 1447 1448 1448 1447 1446 1446 1445 1444 1443 1442 1441 1440 1438 1437 1435 1434 1433 1432 1431 1430 1430 1430 1430 1430 1429 1429 1429 1429 1430 1430 1430 1430
1462 1461 1453 1447 1447 1448 1447 1445 1444 1443 1443 1444 1444 1445 1445 1444 1444 1443 1442 1441 1440 1439 1438 1437 1436 1434 1432 1431 1430 1429 1427 1427 1426 1426 1425 1425 1425 1425 1425 1425 1424 1425 1425 1425
1452 1449 1444 1443 1443 1443 1444 1443 1443 1442 1442 1442 1442 1442 1442 1442 1441 1441 1440 1439 1438 1436 1435 1434 1433 1432 1430 1429 1427 1426 1424 1423 1423 1422 1422 1421 1421 1420 1420 1420 1420 1420 1420 1420
1447 1443 1441 1441 1441 1441 1441 1441 1441 1441 1441 1440 1440 1440 1440 1439 1439 1438 1437 1436 1435 1434 1433 1432 1431 1430 1428 1427 1425 1423 1422 1421 1420 1419 1418 1418 1418 1417 1417 1416 1416 1416 1416 1416
1443 1440 1440 1438 1439 1439 1439 1439 1439 1438 1438 1438 1438 1437 1437 1436 1436 1436 1435 1434 1433 1432 1431 1430 1429 1427 1426 1424 1423 1421 1420 1418 1417 1416 1416 1415 1414 1414 1413 1413 1413 1413 1412 1412
1439 1438 1438 1437 1436 1436 1436 1436 1435 1435 1435 1435 1435 1435 1434 1434 1434 1433 1433 1432 1431 1430 1429 1428 1426 1425 1424 1423 1421 1419 1417 1416 1415 1414 1413 1412 1411 1410 1410 1410 1409 1409 1409 1409
1434 1434 1435 1434 1433 1433 1433 1433 1433 1433 1433 1433 1433 1433 1432 1432 1431 1431 1430 1430 1429 1428 1427 1426 1424 1423 1422 1421 1419 1418 1416 1414 1413 1412 1411 1410 1409 1408 1407 1407 1406 1406 1406 1406
1431 1432 1431 1431 1431 1431 1431 1430 1430 1430 1430 1431 1430 1430 1430 1429 1429 1429 1428 1428 1427 1426 1425 1424 1423 1421 1420 1419 1418 1416 1414 1413 1412 1411 1410 1408 1407 1406 1405 1404 1403 1403 1403 1403
1428 1429 1429 1428 1428 1428 1428 1428 1428 1427 1428 1428 1428 1428 1427 1427 1427 1426 1426 1426 1425 1424 1423 1422 1421 1420 1419 1417 1416 1415 1413 1412 1411 1410 1408 1407 1406 1405 1404 1403 1402 1401 1400 1400
1426 1425 1426 1426 1426 1426 1425 1425 1425 1425 1425 1425 1426 1425 1425 1425 1425 1424 1424 1423 1422 1421 1421 1420 1419 1418 1417 1416 1414 1413 1412 1411 1410 1408 1407 1406 1405 1403 1402 1401 1400 1399 1398 1398
1423 1423 1423 1423 1423 1423 1423 1423 1423 1423 1423 1423 1423 1423 1423 1423 1422 1422 1422 1421 1421 1420 1419 1418 1417 1416 1415 1414 1413 1411 1410 1409 1408 1406 1405 1404 1403 1401 1400 1399 1398 1397 1397 1396
1421 1421 1421 1421 1421 1421 1421 1421 1422 1422 1422 1422 1422 1421 1421 1421 1420 1420 1419 1419 1418 1417 1417 1416 1415 1414 1413 1412 1410 1409 1408 1407 1405 1404 1403 1402 1401 1400 1398 1397 1396 1395 1394 1393
1418 1418 1418 1419 1419 1419 1419 1419 1419 1420 1420 1420 1420 1419 1419 1419 1419 1418 1418 1417 1416 1415 1414 1413 1413 1411 1410 1409 1408 1407 1406 1405 1403 1402 1401 1400 1399 1397 1396 1395 1394 1392 1391 1390
1416 1417 1417 1416 1417 1417 1417 1417 1417 1417 1417 1417 1417 1417 1417 1417 1417 1416 1415 1415 1414 1413 1412 1411 1410 1409 1408 1407 1406 1405 1404 1402 1401 1400 1399 1398 1396 1395 1394 1392 1391 1390 1389 1387
1415 1415 1415 1415 1415 1415 1415 1415 1415 1415 1415 1415 1415 1415 1415 1414 1414 1413 1412 1412 1411 1411 1410 1409 1408 1407 1406 1405 1404 1403 1401 1400 1399 1398 1396 1395 1394 1392 1391 1390 1389 1387 1386 1384
1414 1414 1413 1413 1413 1413 1413 1413 1413 1413 1413 1413 1413 1412 1412 1411 1411 1411 1410 1410 1409 1408 1407 1406 1406 1405 1404 1403 1401 1400 1399 1398 1396 1395 1394 1392 1391 1390 1388 1387 1385 1384 1383 1381
1413 1412 1412 1412 1412 1411 1411 1411 1411 1411 1410 1410 1410 1410 1409 1409 1408 1408 1407 1407 1406 1406 1405 1404 1403 1403 1402 1400 1399 1397 1396 1395 1394 1392 1391 1390 1388 1387 1385 1384 1382 1381 1380 1378
1411 1411 1410 1410 1410 1409 1409 1409 1409 1408 1408 1408 1407 1407 1407 1406 1406 1406 1405 1404 1404 1403 1402 1401 1401 1400 1399 1397 1396 1395 1393 1392 1391 1389 1388 1386 1385 1383 1382 1381 1379 1378 1376 1375
1409 1409 1409 1408 1408 1407 1407 1407 1406 1406 1405 1405 1405 1404 1404 1403 1403 1403 1402 1402 1401 1400 1399 1398 1398 1397 1395 1394 1393 1392 1390 1389 1388 1386 1385 1383 1382 1380 1379 1378 1376 1374 1373 1371
1407 1407 1407 1407 1406 1406 1405 1405 1404 1403 1403 1402 1402 1401 1401 1401 1400 1400 1399 1398 1398 1397 1396 1395 1394 1393 1392 1391 1390 1388 1387 1386 1385 1383 1382 1380 1378 1377 1376 1374 1373 1371 1369 1368
1406 1405 1405 1405 1404 1404 1403 1402 1402 1401 1400 1400 1399 1398 1398 1398 1397 1396 1396 1395 1395 1394 1393 1392 1391 1390 1389 1388 1386 1385 1384 1383 1381 1380 1378 1377 1375 1374 1372 1371 1369 1367 1366 1364